KC9KZ-13 Weather Reports


time (UTC)temp
F
wind
direction
speed
knots
gust
knots
rain 1hr
in
rain 24hr
in
rain mn
in
humidity
%
barometer
mb
20260505063942 62 247 5.2 6.1 0.00 0.00 0.00 37 1010.1
20260505060943 62 220 4.3 6.1 0.00 0.00 0.00 36 1009.9
20260505053927 63 219 3.5 4.3 0.00 0.00 0.00 35 1010.1
20260505051000 64 185 3.5 5.2 0.00 0.00 0.00 35 1010.2
20260505040944 66 199 5.2 8.7 0.00 0.00 0.00 33 1009.8
20260505033934 67 211 5.2 9.6 0.00 0.00 0.00 31 1009.4
20260505030942 68 194 6.1 9.6 0.00 0.00 0.00 29 1009.1
20260505023940 66 167 7.8 11.3 0.00 0.00 0.00 35 1008.8
20260505020948 67 165 7.8 11.3 0.00 0.00 0.00 34 1008.7
20260505013939 68 176 9.6 12.2 0.00 0.00 0.00 35 1008.5
20260505011004 69 157 8.7 15.6 0.00 0.00 0.00 33 1008.6
20260505003936 69 164 8.7 13.0 0.00 0.00 0.00 35 1008.7
20260505000945 72 177 7.8 15.6 0.00 0.00 0.00 31 1008.5
20260504233935 72 149 10.4 17.4 0.00 0.00 0.00 29 1008.6
20260504230944 73 169 13.9 20.0 0.00 0.00 0.00 28 1008.6
20260504223931 73 151 12.2 16.5 0.00 0.00 0.00 30 1008.6
20260504220935 72 153 12.2 17.4 0.00 0.00 0.00 28 1009.9
20260504213946 72 213 7.0 20.9 0.00 0.00 0.00 27 1010.3
20260504210959 73 158 12.2 18.2 0.00 0.00 0.00 26 1010.6
20260504203935 72 162 8.7 19.1 0.00 0.00 0.00 26 1010.6
20260504200925 72 177 13.9 17.4 0.00 0.00 0.00 25 1011.0
20260504193931 71 164 13.0 18.2 0.00 0.00 0.00 28 1010.6
20260504190933 71 165 13.0 16.5 0.00 0.00 0.00 30 1010.9
20260504183931 70 154 11.3 15.6 0.00 0.00 0.00 33 1011.0
20260504173941 69 167 10.4 15.6 0.00 0.00 0.00 36 1011.0
20260504170938 68 148 8.7 11.3 0.00 0.00 0.00 39 1010.8
20260504151002 65 207 8.7 12.2 0.00 0.00 0.00 45 1010.5
20260504140947 64 153 4.3 6.1 0.00 0.00 0.00 62 1009.5
20260504080949 68 160 9.6 12.2 0.00 0.00 0.00 40 1007.9